| time (UTC) | temp F | wind direction | speed MPH | gust MPH | rain 1hr in | rain 24hr in | rain mn in | humidity % | barometer mb |
| 20260505004016 | 63 | 0.0 | 0.0 | 0.00 | 0.00 | 0.00 | 54 | 1003.4 | |
| 20260505003016 | 64 | 0.0 | 0.0 | 0.00 | 0.00 | 0.00 | 51 | 1003.5 | |
| 20260505002016 | 66 | 0.0 | 0.0 | 0.00 | 0.00 | 0.00 | 49 | 1003.5 | |
| 20260505001016 | 67 | 0.0 | 0.0 | 0.00 | 0.00 | 0.00 | 45 | 1003.7 | |
| 20260505000036 | 69 | 0.0 | 0.0 | 0.00 | 0.00 | 0.00 | 43 | 1003.6 | |
| 20260504235016 | 70 | 0.0 | 0.0 | 0.00 | 0.00 | 0.00 | 42 | 1003.5 | |
| 20260504234016 | 70 | 0.0 | 0.0 | 0.00 | 0.00 | 0.00 | 41 | 1003.5 | |
| 20260504233036 | 71 | 338 | 1.0 | 3.0 | 0.00 | 0.00 | 0.00 | 40 | 1003.4 |
| 20260504232016 | 72 | 225 | 3.0 | 5.0 | 0.00 | 0.00 | 0.00 | 38 | 1003.4 |
| 20260504231016 | 73 | 203 | 1.0 | 2.0 | 0.00 | 0.00 | 0.00 | 36 | 1003.3 |
| 20260504230016 | 73 | 225 | 1.0 | 2.0 | 0.00 | 0.00 | 0.00 | 36 | 1003.4 |
| 20260504225016 | 73 | 203 | 1.0 | 2.0 | 0.00 | 0.00 | 0.00 | 36 | 1003.3 |
| 20260504224016 | 73 | 203 | 5.0 | 8.0 | 0.00 | 0.00 | 0.00 | 35 | 1003.2 |
| 20260504223016 | 74 | 203 | 3.0 | 5.0 | 0.00 | 0.00 | 0.00 | 34 | 1003.3 |
| 20260504222016 | 74 | 225 | 3.0 | 7.0 | 0.00 | 0.00 | 0.00 | 34 | 1003.2 |
| 20260504221016 | 74 | 203 | 1.0 | 1.0 | 0.00 | 0.00 | 0.00 | 35 | 1003.3 |
| 20260504220016 | 74 | 203 | 3.0 | 5.0 | 0.00 | 0.00 | 0.00 | 34 | 1003.3 |
| 20260504215016 | 75 | 225 | 4.0 | 9.0 | 0.00 | 0.00 | 0.00 | 35 | 1003.4 |
| 20260504214016 | 75 | 180 | 5.0 | 6.0 | 0.00 | 0.00 | 0.00 | 35 | 1003.4 |
| 20260504213015 | 75 | 180 | 5.0 | 7.0 | 0.00 | 0.00 | 0.00 | 36 | 1003.5 |
| 20260504212036 | 75 | 180 | 6.0 | 10.0 | 0.00 | 0.00 | 0.00 | 34 | 1003.6 |
| 20260504211016 | 75 | 225 | 4.0 | 6.0 | 0.00 | 0.00 | 0.00 | 37 | 1003.5 |
| 20260504210036 | 75 | 225 | 3.0 | 7.0 | 0.00 | 0.00 | 0.00 | 37 | 1003.7 |
| 20260504205016 | 75 | 225 | 5.0 | 12.0 | 0.00 | 0.00 | 0.00 | 36 | 1003.7 |
| 20260504204035 | 74 | 203 | 5.0 | 6.0 | 0.00 | 0.00 | 0.00 | 36 | 1003.9 |
| 20260504203036 | 75 | 225 | 2.0 | 5.0 | 0.00 | 0.00 | 0.00 | 36 | 1003.9 |
| 20260504202015 | 75 | 203 | 3.0 | 8.0 | 0.00 | 0.00 | 0.00 | 37 | 1004.0 |
| 20260504201015 | 76 | 203 | 7.0 | 15.0 | 0.00 | 0.00 | 0.00 | 35 | 1004.1 |
| 20260504200015 | 75 | 248 | 4.0 | 7.0 | 0.00 | 0.00 | 0.00 | 36 | 1004.2 |
| 20260504195016 | 76 | 248 | 6.0 | 10.0 | 0.00 | 0.00 | 0.00 | 40 | 1004.4 |
| 20260504194015 | 76 | 293 | 2.0 | 6.0 | 0.00 | 0.00 | 0.00 | 38 | 1004.4 |
| 20260504193016 | 75 | 270 | 2.0 | 5.0 | 0.00 | 0.00 | 0.00 | 38 | 1004.6 |
| 20260504192015 | 75 | 338 | 3.0 | 4.0 | 0.00 | 0.00 | 0.00 | 36 | 1004.8 |
| 20260504191015 | 76 | 225 | 4.0 | 9.0 | 0.00 | 0.00 | 0.00 | 35 | 1004.9 |
| 20260504190016 | 75 | 203 | 6.0 | 11.0 | 0.00 | 0.00 | 0.00 | 36 | 1005.0 |
| 20260504185015 | 74 | 203 | 3.0 | 6.0 | 0.00 | 0.00 | 0.00 | 39 | 1005.0 |
| 20260504184035 | 75 | 225 | 3.0 | 7.0 | 0.00 | 0.00 | 0.00 | 42 | 1005.2 |
| 20260504183016 | 74 | 203 | 7.0 | 12.0 | 0.00 | 0.00 | 0.00 | 39 | 1005.4 |
| 20260504182035 | 74 | 270 | 4.0 | 8.0 | 0.00 | 0.00 | 0.00 | 42 | 1005.5 |
| 20260504181035 | 73 | 315 | 4.0 | 10.0 | 0.00 | 0.00 | 0.00 | 41 | 1005.5 |
| 20260504180016 | 72 | 203 | 3.0 | 5.0 | 0.00 | 0.00 | 0.00 | 44 | 1005.6 |
| 20260504175016 | 74 | 270 | 2.0 | 4.0 | 0.00 | 0.00 | 0.00 | 48 | 1005.7 |
| 20260504174015 | 73 | 293 | 4.0 | 7.0 | 0.00 | 0.00 | 0.00 | 44 | 1005.8 |
| 20260504173015 | 73 | 225 | 3.0 | 4.0 | 0.00 | 0.00 | 0.00 | 46 | 1005.9 |
| 20260504172015 | 72 | 293 | 4.0 | 7.0 | 0.00 | 0.00 | 0.00 | 50 | 1005.8 |
| 20260504171015 | 73 | 135 | 1.0 | 2.0 | 0.00 | 0.00 | 0.00 | 46 | 1005.9 |
| 20260504151015 | 67 | 225 | 3.0 | 8.0 | 0.00 | 0.00 | 0.00 | 49 | 1006.9 |
| 20260504141017 | 63 | 180 | 5.0 | 9.0 | 0.00 | 0.00 | 0.00 | 52 | 1006.8 |
| 20260504081016 | 50 | 180 | 2.0 | 3.0 | 0.00 | 0.00 | 0.00 | 62 | 1008.4 |
| 20260504050015 | 50 | 180 | 1.0 | 3.0 | 0.00 | 0.00 | 0.00 | 62 | 1009.4 |
| 20260504045035 | 50 | 203 | 1.0 | 1.0 | 0.00 | 0.00 | 0.00 | 61 | 1009.4 |
| 20260504044036 | 51 | 0.0 | 0.0 | 0.00 | 0.00 | 0.00 | 60 | 1009.4 | |
| 20260504043015 | 52 | 180 | 1.0 | 2.0 | 0.00 | 0.00 | 0.00 | 59 | 1009.4 |
| 20260504042015 | 52 | 180 | 2.0 | 4.0 | 0.00 | 0.00 | 0.00 | 57 | 1009.4 |
| 20260504041015 | 53 | 203 | 2.0 | 3.0 | 0.00 | 0.00 | 0.00 | 56 | 1009.4 |
| 20260504040015 | 54 | 225 | 2.0 | 3.0 | 0.00 | 0.00 | 0.00 | 54 | 1009.4 |
| 20260504035036 | 54 | 225 | 4.0 | 6.0 | 0.00 | 0.00 | 0.00 | 54 | 1009.4 |
| 20260504034016 | 55 | 225 | 3.0 | 4.0 | 0.00 | 0.00 | 0.00 | 53 | 1009.4 |
| 20260504033017 | 54 | 203 | 2.0 | 5.0 | 0.00 | 0.00 | 0.00 | 54 | 1009.4 |
| 20260504032016 | 54 | 203 | 4.0 | 7.0 | 0.00 | 0.00 | 0.00 | 53 | 1009.5 |
| 20260504031017 | 54 | 225 | 2.0 | 4.0 | 0.00 | 0.00 | 0.00 | 55 | 1009.5 |
| 20260504030016 | 54 | 225 | 1.0 | 2.0 | 0.00 | 0.00 | 0.00 | 55 | 1009.5 |
| 20260504025016 | 54 | 225 | 3.0 | 5.0 | 0.00 | 0.00 | 0.00 | 54 | 1009.5 |
| 20260504024016 | 54 | 203 | 3.0 | 6.0 | 0.00 | 0.00 | 0.00 | 54 | 1009.6 |
| 20260504023016 | 54 | 203 | 3.0 | 4.0 | 0.00 | 0.00 | 0.00 | 55 | 1009.6 |
| 20260504022016 | 54 | 315 | 1.0 | 2.0 | 0.00 | 0.00 | 0.00 | 57 | 1009.7 |
| 20260504021016 | 54 | 225 | 1.0 | 2.0 | 0.00 | 0.00 | 0.00 | 56 | 1009.8 |
| 20260504020017 | 54 | 225 | 2.0 | 10.0 | 0.00 | 0.00 | 0.00 | 56 | 1009.8 |
| 20260504015016 | 54 | 180 | 3.0 | 8.0 | 0.00 | 0.00 | 0.00 | 58 | 1009.7 |
| 20260504014016 | 53 | 203 | 2.0 | 5.0 | 0.00 | 0.00 | 0.00 | 60 | 1009.7 |
| 20260504013056 | 53 | 203 | 2.0 | 3.0 | 0.00 | 0.00 | 0.00 | 62 | 1009.8 |
| 20260504012057 | 53 | 0.0 | 0.0 | 0.00 | 0.00 | 0.00 | 64 | 1009.9 | |
| 20260504011036 | 53 | 225 | 1.0 | 2.0 | 0.00 | 0.00 | 0.00 | 64 | 1010.0 |
| 20260504010036 | 53 | 0.0 | 1.0 | 0.00 | 0.00 | 0.00 | 65 | 1010.1 | |
| 20260504005036 | 52 | 0.0 | 1.0 | 0.00 | 0.00 | 0.00 | 67 | 1009.9 |